Onweer radar Meer informatie blitzortung!


Regen radar Meer informatie rain snow radar


Bezoek onze andere website:

Template documentation
and downloads

And another site



15 daagse weersverwachting Ennis (IE)

  • Overzicht
  • Per uur
  • 15 dagen
  • Extra
  • Vergelijk
  • Kaarten
  • Dagkaart
  • Meer »
  • Info
  • Statistieken
  • Directe link
    Temp 6h Neerslag Wind  
 06:24     20:56    Daglengte: 14:32 Morgen
01:00
13°
 
6
07:00
13°
0.3 mm
6
13:00
15°
3.7 mm
7
19:00
15°
8.0 mm
5
 06:26     20:54    Daglengte: 14:28 Maandag 19 Aug
01:00
13°
5.7 mm
5
07:00
12°
3.2 mm
4
13:00
15°
5.6 mm
6
19:00
14°
2.9 mm
6
 06:28     20:52    Daglengte: 14:24 Dinsdag 20 Aug
01:00
12°
 
2
07:00
13°
12.3 mm
3
13:00
16°
43.9 mm
5
warningclass
19:00
16°
34.4 mm
4
Locatie info
Region: Clare
Latitude: 52.8469°N
Longitude: -8.9882°E
5 masl
Postcode: -1
Temp/Neerslag /Baro Onweer/Dauwpunt
    Temp Baro 1h Neerslag Dauwpunt Wind UV Bewolking  
 06:24     20:56    Daglengte: 14:32 Morgen
00:00
13°
999.0 hPa
14%
9.7°
6
Windvlaag: 3.6 m/s
16%
01:00
13°
998.8 hPa
72%
10.0°
6
Windvlaag: 3.6 m/s
46%
02:00
13°
998.7 hPa
44%
10.2°
6
Windvlaag: 3.6 m/s
19%
03:00
13°
998.3 hPa
81%
10.7°
6
Windvlaag: 3.2 m/s
43%
04:00
13°
998.3 hPa
82%
10.6°
6
Windvlaag: 3.1 m/s
52%
05:00
13°
998.2 hPa
82%
10.2°
6
Windvlaag: 3 m/s
63%
06:00
13°
998.2 hPa
82%
10.2°
6
Windvlaag: 2.6 m/s
50%
07:00
13°
998.5 hPa 0.3 mm
81%
10.5°
6
Windvlaag: 2.7 m/s
49%
08:00
13°
998.8 hPa
82%
10.8°
6
Windvlaag: 2.7 m/s
60%
09:00
14°
999.2 hPa 0.5 mm
82%
11.3°
7
Windvlaag: 3.1 m/s
62%
10:00
14°
999.7 hPa 0.8 mm
82%
12.0°
7
Windvlaag: 3.4 m/s
66%
11:00
15°
1000.1 hPa
82%
11.8°
8
Windvlaag: 4 m/s
60%
12:00
15°
1000.5 hPa 1.1 mm
82%
11.2°
8
Windvlaag: 3.7 m/s
84%
13:00
15°
1000.9 hPa 1.3 mm
82%
11.6°
7
Windvlaag: 3.3 m/s
83%
14:00
15°
1001.2 hPa 0.8 mm
82%
12.7°
6
Windvlaag: 2.3 m/s
64%
15:00
16°
1001.7 hPa 0.9 mm
82%
13.9°
6
Windvlaag: 0.1 m/s
82%
16:00
16°
1002.2 hPa 1.6 mm
80%
13.3°
6
Windvlaag: 0.1 m/s
43%
17:00
16°
1002.9 hPa 1.8 mm
40%
12.4°
7
Windvlaag: -0.4 m/s
68%
18:00
15°
1003.7 hPa 1.3 mm
82%
12.2°
6
Windvlaag: -0.5 m/s
50%
19:00
15°
1004.3 hPa 1.6 mm
75%
12.1°
5
Windvlaag: -0.4 m/s
37%
20:00
14°
1005.0 hPa
74%
12.0°
5
Windvlaag: -0.4 m/s
46%
21:00
13°
1005.9 hPa 1.3 mm
32%
11.7°
5
Windvlaag: -0.2 m/s
33%
22:00
13°
1006.7 hPa 1.5 mm
82%
11.6°
4
Windvlaag: 0.1 m/s
28%
23:00
13°
1007.2 hPa 1.5 mm
45%
11.3°
4
Windvlaag: 1.2 m/s
51%
 06:26     20:54    Daglengte: 14:28 Maandag 19 Aug
00:00
13°
1007.7 hPa 1.4 mm
46%
11.1°
5
Windvlaag: 0.4 m/s
48%
01:00
13°
1008.0 hPa
46%
10.6°
5
Windvlaag: 0.4 m/s
44%
02:00
12°
1008.3 hPa 1.3 mm
47%
10.5°
4
Windvlaag: 1.1 m/s
48%
03:00
12°
1008.5 hPa
46%
10.2°
4
Windvlaag: 0.6 m/s
57%
04:00
12°
1008.7 hPa
81%
10.0°
4
Windvlaag: 0.4 m/s
51%
05:00
12°
1009.0 hPa
82%
10.1°
4
Windvlaag: 0.7 m/s
57%
06:00
12°
1009.4 hPa
46%
10.6°
4
Windvlaag: 0.5 m/s
62%
07:00
12°
1009.9 hPa 1.9 mm
82%
10.6°
4
Windvlaag: 0.8 m/s
39%
08:00
13°
1010.5 hPa
81%
10.5°
5
Windvlaag: 0.2 m/s
56%
09:00
13°
1011.1 hPa
82%
11.0°
5
Windvlaag: 0.4 m/s
29%
10:00
14°
1011.7 hPa 1.0 mm
82%
11.4°
5
Windvlaag: 0.6 m/s
43%
11:00
15°
1012.3 hPa 1.3 mm
82%
11.7°
5
Windvlaag: 0.5 m/s
18%
12:00
15°
1012.7 hPa 1.7 mm
82%
12.2°
6
Windvlaag: 0.7 m/s
21%
13:00
15°
1013.4 hPa 1.6 mm
81%
11.6°
6
Windvlaag: 0.6 m/s
29%
14:00
15°
1013.9 hPa 1.6 mm
81%
12.1°
6
Windvlaag: 0.7 m/s
22%
15:00
15°
1014.4 hPa
80%
11.5°
7
Windvlaag: 0.3 m/s
21%
16:00
15°
1014.7 hPa
77%
11.7°
6
Windvlaag: 0.4 m/s
33%
17:00
15°
1015.2 hPa
29%
11.2°
7
Windvlaag: 0.5 m/s
26%
18:00
15°
1015.7 hPa
21%
11.2°
6
Windvlaag: 0.6 m/s
32%
19:00
14°
1016.2 hPa 1.3 mm
16%
10.4°
6
Windvlaag: 0.3 m/s
32%
20:00
14°
1016.6 hPa
16%
10.1°
5
Windvlaag: 0.4 m/s
12%
21:00
13°
1017.3 hPa
19%
9.6°
4
Windvlaag: 0.2 m/s
3%
22:00
12°
1018.5 hPa
26%
8.9°
3
Windvlaag: 0.3 m/s
20%
23:00
12°
1019.0 hPa
23%
8.9°
3
Windvlaag: 0.6 m/s
33%
 06:28     20:52    Daglengte: 14:24 Dinsdag 20 Aug
00:00
12°
1019.2 hPa
23%
9.2°
2
Windvlaag: 0.8 m/s
36%
01:00
12°
1019.5 hPa
42%
9.3°
2
Windvlaag: 1.3 m/s
71%
02:00
12°
1019.4 hPa
94%
9.5°
2
Windvlaag: 1.5 m/s
81%
03:00
12°
1019.3 hPa 3.2 mm
94%
9.7°
2
Windvlaag: 1 m/s
94%
04:00
13°
1019.2 hPa
51%
10.6°
3
Windvlaag: 2.4 m/s
96%
05:00
13°
1019.2 hPa
100%
10.9°
3
Windvlaag: 2.5 m/s
83%
06:00
13°
1019.3 hPa 3.7 mm
100%
10.8°
3
Windvlaag: 2.6 m/s
92%
07:00
13°
1019.6 hPa 5.4 mm
100%
11.4°
3
Windvlaag: 1.9 m/s
90%
08:00
13°
1019.5 hPa 8.9 mm
59%
12.2°
4
Windvlaag: 1.3 m/s
82%
09:00
14°
1019.9 hPa 5.6 mm
100%
13.1°
4
Windvlaag: 1.1 m/s
91%
10:00
15°
1020.2 hPa 8.5 mm
100%
13.8°
4
Windvlaag: 1 m/s
82%
11:00
16°
1020.6 hPa 5.4 mm
100%
13.6°
5
Windvlaag: 1 m/s
91%
12:00
16°
1021.1 hPa 5.9 mm
100%
13.1°
5
Windvlaag: 1.1 m/s
97%
13:00
16°
1021.3 hPa 9.7 mm
100%
13.2°
5
Windvlaag: 1.7 m/s
99% warningclass
14:00
17°
1021.5 hPa 6.2 mm
100%
13.9°
5
Windvlaag: 1.4 m/s
83%
15:00
17°
1021.7 hPa 6.2 mm
100%
13.6°
6
Windvlaag: 1.2 m/s
72%
16:00
17°
1021.8 hPa 6.1 mm
99%
13.6°
6
Windvlaag: 1.1 m/s
59%
17:00
17°
1021.9 hPa 6.0 mm
96%
13.4°
6
Windvlaag: 1.1 m/s
61%
18:00
16°
1022.2 hPa 9.8 mm
94%
13.4°
5
Windvlaag: 1.1 m/s
60%
19:00
16°
1022.4 hPa
52%
13.3°
4
Windvlaag: 1 m/s
72%
20:00
16°
1022.5 hPa
100%
13.0°
4
Windvlaag: 7.2 m/s
96%
21:00
15°
1022.7 hPa
100%
12.8°
4
Windvlaag: 6.9 m/s
94%
22:00
14°
1022.9 hPa
92%
12.7°
3
Windvlaag: 8.1 m/s
96%
23:00
14°
1023.0 hPa
38%
12.7°
3
Windvlaag: 7.9 m/s
90%
Temp/Neerslag /Baro Onweer/Dauwpunt
    Temp Baro Neerslag Dauwpunt Wind Bewolking  
 06:24     20:56    Daglengte: 14:32 Morgen
01:00
13°
998.8 hPa   10.0°
6
46%
04:00
13°
998.3 hPa   10.6°
6
52%
07:00
13°
998.5 hPa 0.3 mm 10.5°
6
49%
10:00
14°
999.7 hPa 1.2 mm 12.0°
7
66%
13:00
15°
1000.9 hPa 2.4 mm 11.6°
7
83%
16:00
16°
1002.2 hPa 3.3 mm 13.3°
6
43%
19:00
15°
1004.3 hPa 4.7 mm 12.1°
5
37%
22:00
13°
1006.7 hPa 2.8 mm 11.6°
4
28%
 06:26     20:54    Daglengte: 14:28 Maandag 19 Aug
01:00
13°
1008.0 hPa 2.9 mm 10.6°
5
44%
04:00
12°
1008.7 hPa 1.3 mm 10.0°
4
51%
07:00
12°
1009.9 hPa 1.9 mm 10.6°
4
39%
10:00
14°
1011.7 hPa 1.0 mm 11.4°
5
43%
13:00
15°
1013.4 hPa 4.6 mm 11.6°
6
29%
16:00
15°
1014.7 hPa 1.6 mm 11.7°
6
33%
19:00
14°
1016.2 hPa 1.3 mm 10.4°
6
32%
22:00
12°
1018.5 hPa   8.9°
3
20%
 06:28     20:52    Daglengte: 14:24 Dinsdag 20 Aug
01:00
12°
1019.5 hPa   9.3°
2
71%
04:00
13°
1019.2 hPa 3.2 mm 10.6°
3
96%
07:00
13°
1019.6 hPa 9.1 mm 11.4°
3
90%
10:00
15°
1020.2 hPa 23.0 mm 13.8°
4
82%
13:00
16°
1021.3 hPa 20.9 mm 13.2°
5
99% warningclass
16:00
17°
1021.8 hPa 18.5 mm 13.6°
6
59%
19:00
16°
1022.4 hPa 15.9 mm 13.3°
4
72%
22:00
14°
1022.9 hPa   12.7°
3
96%
 06:29     20:49    Daglengte: 14:20 Woensdag 21 Aug
01:00
13°
1022.8 hPa   12.3°
3
76%
04:00
13°
1022.1 hPa 15.9 mm 11.5°
4
89%
07:00
13°
1021.4 hPa 15.9 mm 11.3°
5
92%
10:00
15°
1020.2 hPa 16.0 mm 12.2°
6
92%
13:00
16°
1019.1 hPa 16.8 mm 12.9°
7
92%
16:00
16°
1018.9 hPa 17.8 mm 13.7°
6
81%
19:00
16°
1018.8 hPa 18.9 mm 14.6°
4
70%
22:00
15°
1019.2 hPa 19.0 mm 14.1°
4
81%
 06:31     20:47    Daglengte: 14:16 Donderdag 22 Aug
01:00
15°
1019.7 hPa 19.0 mm 13.7°
4
92%
04:00
15°
1019.0 hPa 19.0 mm 14.4°
5
92%
07:00
16°
1018.3 hPa 19.0 mm 15.0°
6
92%
10:00
17°
1019.7 hPa 19.1 mm 15.2°
7
92%
13:00
18°
1021.1 hPa 19.4 mm 15.0°
7
92%
16:00
18°
1021.6 hPa 19.9 mm 14.7°
6
92%
19:00
17°
1022.1 hPa 20.1 mm 14.3°
5
92%
22:00
16°
1022.6 hPa 20.2 mm 13.7°
4
71%
 06:33     20:45    Daglengte: 14:12 Vrijdag 23 Aug
01:00
15°
1022.9 hPa 20.2 mm 13.1°
4
51%
04:00
14°
1022.5 hPa 20.2 mm 12.7°
3
59%
07:00
13°
1022.1 hPa 20.2 mm 12.3°
3
67%
10:00
17°
1021.4 hPa 20.2 mm 13.4°
4
80%
13:00
21°
1020.6 hPa 20.2 mm 13.8°
5
92%
16:00
20°
1019.5 hPa 20.2 mm 14.2°
5
83%
19:00
20°
1018.4 hPa 20.3 mm 14.6°
4
74%
22:00
17°
1018.4 hPa 20.5 mm 14.3°
3
80%
 06:35     20:43    Daglengte: 14:08 Zaterdag 24 Aug
01:00
14°
1018.4 hPa 21.0 mm 13.8°
3
87%
04:00
14°
1017.7 hPa 21.0 mm 13.6°
3
89%
07:00
14°
1017.1 hPa 21.0 mm 13.3°
3
91%
10:00
16°
1017.8 hPa 21.0 mm 13.1°
3
91%
13:00
18°
1018.3 hPa 21.0 mm 12.6°
3
92%
16:00
17°
1018.8 hPa 21.0 mm 13.1°
2
92%
19:00
17°
1019.3 hPa 21.1 mm 13.6°
2
92%
22:00
15°
1021.0 hPa   11.8°
3
48%
 06:36     20:41    Daglengte: 14:05 Zondag 25 Aug
01:00
12°
1022.7 hPa 42.2 mm 10.0°
4
5%
07:00
10°
1024.1 hPa 42.4 mm 9.1°
3
25%
13:00
16°
1025.3 hPa 42.4 mm 9.0°
4
90%
19:00
16°
1026.2 hPa 42.5 mm 9.0°
4
84%
 06:38     20:38    Daglengte: 14:00 Maandag 26 Aug
01:00
11°
1028.3 hPa 42.7 mm 9.6°
2
1%
07:00
Voelt als: 8.1°
1028.6 hPa 42.7 mm 8.4°
1
76%
13:00
17°
1028.6 hPa 42.7 mm 10.3°
2
80%
19:00
17°
1027.1 hPa 42.7 mm 11.9°
2
80%
 06:40     20:36    Daglengte: 13:56 Dinsdag 27 Aug
01:00
12°
1027.4 hPa 42.7 mm 11.7°
2
42%
07:00
11°
1026.1 hPa 42.7 mm 10.5°
1
92%
13:00
18°
1025.1 hPa 42.7 mm 10.4°
1
62%
19:00
18°
1022.9 hPa 0.5 mm 14.1°
2
47%
 06:41     20:34    Daglengte: 13:53 Woensdag 28 Aug
01:00
13°
1022.8 hPa 0.2 mm 11.5°
1
37%
07:00
12°
1021.4 hPa 0.2 mm 10.7°
1
42%
13:00
18°
1021.5 hPa 0.2 mm 13.0°
1
44%
19:00
18°
1020.6 hPa 0.3 mm 13.9°
1
48%
 06:43     20:31    Daglengte: 13:48 Donderdag 29 Aug
01:00
13°
1021.1 hPa 0.4 mm 11.6°
0
41%
07:00
12°
1020.4 hPa 0.1 mm 10.7°
1
43%
13:00
17°
1020.5 hPa 0.3 mm 12.8°
1
41%
19:00
17°
1019.7 hPa 0.7 mm 13.4°
1
46%
 06:45     20:29    Daglengte: 13:44 Vrijdag 30 Aug
01:00
13°
1020.1 hPa 0.6 mm 11.5°
1
43%
07:00
11°
1019.6 hPa 0.7 mm 10.1°
1
39%
13:00
17°
1020.0 hPa 0.4 mm 11.7°
1
43%
19:00
16°
1019.0 hPa 0.4 mm 12.3°
2
47%
 06:46     20:27    Daglengte: 13:41 Zaterdag 31 Aug
01:00
12°
1018.9 hPa 0.2 mm 10.5°
1
36%
07:00
11°
1017.7 hPa 0.5 mm 9.8°
1
38%
13:00
16°
1018.0 hPa 0.2 mm 11.7°
1
37%
19:00
16°
1017.2 hPa 0.5 mm 12.3°
2
41%
 06:48     20:24    Daglengte: 13:36 Zondag 01 Sep
01:00
12°
1018.0 hPa 0.5 mm 10.0°
1
35%
07:00
10°
1017.5 hPa 0.4 mm 8.9°
1
35%
13:00
16°
1018.0 hPa 0.2 mm 10.8°
2
35%
19:00
15°
1017.7 hPa 0.2 mm 11.4°
2
46%
  CAPE Lifted Index Hail Supercell Tornado SRH 3km CL BTM PRES CL TOP PRES Swiss DWD icon SMHI TS
 06:24     20:56    Daglengte: 14:32 Morgen
00:00 49 J/kg 2.9 K 0 % 0 % 0 % 0 m²/s² 0 0 6.8 2
01:00 75 J/kg 2.3 K 0 % 0 % 0 % 0 m²/s² 0 0 5.63 2
02:00 102 J/kg 2.0 K 0 % 0 % 0 % 0 m²/s² 0 0 4.46 3
03:00 111 J/kg 1.5 K 0 % 0 % 0 % 0 m²/s² 0 0 3.3 3
04:00 78 J/kg 2.2 K 0 % 0 % 0 % 0 m²/s² 0 0 3.49 61
05:00 42 J/kg 2.4 K 0 % 0 % 0 % 0 m²/s² 0 0 2.73 2
06:00 75 J/kg 2.2 K 0 % 0 % 0 % 0 m²/s² 0 0 2.5 3
07:00 138 J/kg 1.4 K 0 % 0 % 0 % 0 m²/s² 0 0 2.33 3
08:00 155 J/kg 0.6 K 0 % 0 % 0 % 0 m²/s² 0 0 1.23 80
09:00 181 J/kg 0.0 K 0 % 0 % 0 % 0 m²/s² 0 0 0.36 3
10:00 210 J/kg -0.6 K 0 % 0 % 0 % 0 m²/s² 0 0 -0.36 80
11:00 204 J/kg -0.3 K 0 % 0 % 0 % 0 m²/s² 0 0 0.12 80
12:00 172 J/kg 0.0 K 0 % 0 % 0 % 0 m²/s² 0 0 0.63 3
13:00 301 J/kg -0.5 K 0 % 0 % 0 % 0 m²/s² 0 0 0.91 3
14:00 590 J/kg -1.6 K 0 % 0 % 0 % 0 m²/s² 0 0 1.07 3
15:00 674 J/kg -2.0 K 0 % 0 % 0 % 0 m²/s² 0 0 -1.46 80
16:00 675 J/kg -2.2 K 0 % 0 % 0 % 0 m²/s² 0 0 -1.33 2
17:00 140 J/kg 0.2 K 0 % 0 % 0 % 0 m²/s² 0 0 0.95 3
18:00 129 J/kg 0.2 K 0 % 0 % 0 % 0 m²/s² 0 0 1.1 80
19:00 117 J/kg 0.3 K 0 % 0 % 0 % 0 m²/s² 0 0 1.11 2
20:00 246 J/kg -0.3 K 0 % 0 % 0 % 0 m²/s² 0 0 0.6 2
21:00 204 J/kg -0.1 K 0 % 0 % 0 % 0 m²/s² 0 0 1.46 2
22:00 258 J/kg -0.4 K 0 % 0 % 0 % 0 m²/s² 0 0 1.97 2
23:00 192 J/kg -0.1 K 0 % 0 % 0 % 0 m²/s² 0 0 3.02 2
 06:26     20:54    Daglengte: 14:28 Maandag 19 Aug
00:00 114 J/kg 1.0 K 0 % 0 % 0 % 0 m²/s² 0 0 5.17 2
01:00 32 J/kg 2.9 K 0 % 0 % 0 % 0 m²/s² 0 0 7.91 2
02:00 50 J/kg 3.0 K 0 % 0 % 0 % 0 m²/s² 0 0 8.73 2
03:00 41 J/kg 3.2 K 0 % 0 % 0 % 0 m²/s² 0 0 8.93 2
04:00 110 J/kg 2.1 K 0 % 0 % 0 % 0 m²/s² 0 0 6.48 2
05:00 119 J/kg 1.9 K 0 % 0 % 0 % 0 m²/s² 0 0 6.07 2
06:00 107 J/kg 2.1 K 0 % 0 % 0 % 0 m²/s² 0 0 6.36 2
07:00 114 J/kg 2.1 K 0 % 0 % 0 % 0 m²/s² 0 0 6.06 2
08:00 147 J/kg 1.8 K 0 % 0 % 0 % 0 m²/s² 0 0 5.46 3
09:00 185 J/kg 1.4 K 0 % 0 % 0 % 0 m²/s² 0 0 4.85 2
10:00 187 J/kg 1.5 K 0 % 0 % 0 % 0 m²/s² 0 0 5.04 3
11:00 164 J/kg 1.8 K 0 % 0 % 0 % 0 m²/s² 0 0 5.43 2
12:00 168 J/kg 1.7 K 0 % 0 % 0 % 0 m²/s² 0 0 5.63 2
13:00 156 J/kg 1.9 K 0 % 0 % 0 % 0 m²/s² 0 0 6.25 2
14:00 94 J/kg 2.9 K 0 % 0 % 0 % 0 m²/s² 0 0 7.37 2
15:00 60 J/kg 3.6 K 0 % 0 % 0 % 0 m²/s² 0 0 8.19 2
16:00 95 J/kg 2.6 K 0 % 0 % 0 % 0 m²/s² 0 0 6.86 2
17:00 88 J/kg 2.7 K 0 % 0 % 0 % 0 m²/s² 0 0 6.75 2
18:00 98 J/kg 2.6 K 0 % 0 % 0 % 0 m²/s² 0 0 6.77 1
19:00 117 J/kg 1.9 K 0 % 0 % 0 % 0 m²/s² 0 0 6.07 2
20:00 129 J/kg 1.4 K 0 % 0 % 0 % 0 m²/s² 0 0 5.69 1
21:00 89 J/kg 1.5 K 0 % 0 % 0 % 0 m²/s² 0 0 4.89 1
22:00 58 J/kg 1.6 K 0 % 0 % 0 % 0 m²/s² 0 0 3.76 1
23:00 30 J/kg 1.6 K 0 % 0 % 0 % 0 m²/s² 0 0 2.98 2
 06:28     20:52    Daglengte: 14:24 Dinsdag 20 Aug
00:00 31 J/kg 0.6 K 0 % 0 % 0 % 0 m²/s² 0 0 1.26 2
01:00 39 J/kg 0.4 K 0 % 0 % 0 % 0 m²/s² 0 0 1.03 3
02:00 24 J/kg 0.3 K 0 % 0 % 0 % 0 m²/s² 0 0 0.6 3
03:00 3 J/kg 1.5 K 0 % 0 % 0 % 0 m²/s² 0 0 1.62 80
04:00 121 J/kg -0.6 K 0 % 0 % 0 % 0 m²/s² 0 0 0.21 3
05:00 260 J/kg 0.1 K 0 % 0 % 0 % 0 m²/s² 0 0 0.94 3
06:00 198 J/kg 0.5 K 0 % 0 % 0 % 0 m²/s² 0 0 1.31 80
07:00 247 J/kg 0.1 K 0 % 0 % 0 % 0 m²/s² 0 0 1.54 3
08:00 217 J/kg 0.3 K 0 % 0 % 0 % 0 m²/s² 0 0 2.34 3
09:00 242 J/kg 0.5 K 0 % 0 % 0 % 0 m²/s² 0 0 1.94 80
10:00 248 J/kg 0.6 K 0 % 0 % 0 % 0 m²/s² 0 0 1.05 3
11:00 247 J/kg 0.4 K 0 % 0 % 0 % 0 m²/s² 0 0 0.91 80
12:00 292 J/kg 0.1 K 0 % 0 % 0 % 0 m²/s² 0 0 0.25 61
13:00 261 J/kg -0.4 K 0 % 0 % 0 % 0 m²/s² 0 0 -0.28 95
14:00 378 J/kg -0.7 K 0 % 0 % 0 % 0 m²/s² 0 0 -0.37 80
15:00 336 J/kg -0.4 K 0 % 0 % 0 % 0 m²/s² 0 0 0.23 80
16:00 254 J/kg 0.1 K 0 % 0 % 0 % 0 m²/s² 0 0 0.64 80
17:00 241 J/kg 0.3 K 0 % 0 % 0 % 0 m²/s² 0 0 0.9 80
18:00 208 J/kg 0.6 K 0 % 0 % 0 % 0 m²/s² 0 0 1.71 2
19:00 181 J/kg 0.9 K 0 % 0 % 0 % 0 m²/s² 0 0 2.97 2
20:00 142 J/kg 1.4 K 0 % 0 % 0 % 0 m²/s² 0 0 3.2 3
21:00 152 J/kg 1.6 K 0 % 0 % 0 % 0 m²/s² 0 0 3.28 3
22:00 142 J/kg 1.6 K 0 % 0 % 0 % 0 m²/s² 0 0 1.96 3
23:00 123 J/kg 1.7 K 0 % 0 % 0 % 0 m²/s² 0 0 2.12 3
Temp Baro Wind Neerslag
  EWN Forecast EWN WRFDA DWD ICON FMI HIRLAM MET Norway GFS
 06:24     20:56    Daglengte: 14:32 Morgen
01:00 13.2° 998.8 hPa 5.6 m/s 0.0 mm 13.1° 997.6 hPa 5.6 m/s 0.6 mm 13.3° 998.9 hPa 6.2 m/s -2.0 mm 12.9° 998.9 hPa 5.3 m/s 0.0 mm 13.2° 998.9 hPa 5.0 m/s 0.0 mm 12.0° 998.3 hPa 4.7 m/s
04:00 13.1° 998.3 hPa 6.1 m/s 0.0 mm 13.1° 997.1 hPa 6.2 m/s 1.3 mm 13.1° 998.5 hPa 6.5 m/s 0.1 mm 12.6° 997.6 hPa 5.2 m/s 0.0 mm 13.0° 998.4 hPa 6.0 m/s 0.7 mm 11.4° 997.7 hPa 4.3 m/s
07:00 13.0° 998.5 hPa 6.1 m/s 0.3 mm 13.1° 997.2 hPa 7.3 m/s 2.4 mm 13.1° 998.8 hPa 6.0 m/s 0.3 mm 11.9° 997.4 hPa 4.6 m/s 0.0 mm 13.1° 999.0 hPa 6.2 m/s 0.0 mm 13.0° 998.1 hPa 6.4 m/s
10:00 14.4° 999.7 hPa 7.0 m/s 1.2 mm 13.9° 999.2 hPa 8.0 m/s 5.3 mm 14.2° 1000.3 hPa 7.4 m/s 0.7 mm 13.4° 997.3 hPa 7.0 m/s 0.0 mm 14.6° 1000.3 hPa 5.3 m/s 0.7 mm 14.2° 999.9 hPa 7.7 m/s
13:00 15.2° 1000.9 hPa 7.1 m/s 2.4 mm 14.9° 1000.8 hPa 8.4 m/s 10.1 mm 15.3° 1001.4 hPa 7.5 m/s 0.5 mm 14.5° 997.9 hPa 7.0 m/s 0.0 mm 15.9° 1001.6 hPa 7.1 m/s 0.3 mm 15.2° 1001.4 hPa 7.5 m/s
16:00 16.3° 1002.2 hPa 6.1 m/s 3.3 mm 16.2° 1002.4 hPa 7.0 m/s 13.5 mm 16.5° 1002.3 hPa 6.3 m/s 0.5 mm 16.5° 999.3 hPa 5.7 m/s 0.0 mm 16.2° 1003.2 hPa 5.5 m/s 1.2 mm 15.8° 1003.6 hPa 7.5 m/s
19:00 14.6° 1004.3 hPa 5.2 m/s 4.7 mm 15.3° 1004.5 hPa 6.9 m/s 16.5 mm 14.5° 1004.8 hPa 6.1 m/s 1.0 mm 14.3° 1000.7 hPa 4.5 m/s 0.0 mm 14.6° 1005.0 hPa 4.7 m/s 2.4 mm 14.8° 1005.3 hPa 5.8 m/s
22:00 13.1° 1006.7 hPa 4.0 m/s 2.8 mm 13.1° 1006.5 hPa 3.9 m/s 16.8 mm 13.0° 1007.1 hPa 4.5 m/s 0.1 mm 13.7° 1003.1 hPa 4.6 m/s 0.0 mm 13.0° 1007.4 hPa 3.7 m/s 0.6 mm 11.2° 1007.7 hPa 3.1 m/s
 06:26     20:54    Daglengte: 14:28 Maandag 19 Aug
01:00 12.6° 1008.0 hPa 4.5 m/s 2.9 mm 12.5° 1008.0 hPa 4.8 m/s 17.3 mm 12.7° 1008.2 hPa 4.4 m/s 0.0 mm 13.1° 1004.7 hPa 4.7 m/s 0.0 mm 12.3° 1009.0 hPa 4.3 m/s 0.7 mm 11.4° 1009.1 hPa 4.1 m/s
04:00 12.3° 1008.7 hPa 4.2 m/s 1.3 mm 11.1° 1008.6 hPa 4.2 m/s 17.5 mm 12.5° 1009.1 hPa 4.2 m/s 0.0 mm 12.2° 1005.6 hPa 3.3 m/s 0.0 mm 12.4° 1009.6 hPa 4.3 m/s 0.3 mm 11.2° 1010.0 hPa 3.9 m/s
07:00 12.4° 1009.9 hPa 4.0 m/s 1.9 mm 12.2° 1009.4 hPa 4.9 m/s 17.8 mm 12.3° 1010.3 hPa 4.2 m/s 0.1 mm 11.8° 1006.8 hPa 2.2 m/s 0.0 mm 12.6° 1010.5 hPa 4.0 m/s 0.0 mm 10.9° 1010.9 hPa 3.9 m/s
10:00 14.1° 1011.7 hPa 4.9 m/s 1.0 mm 14.5° 1011.4 hPa 7.1 m/s 17.9 mm 13.9° 1012.1 hPa 5.7 m/s 0.2 mm 13.5° 1008.5 hPa 3.9 m/s 0.0 mm 14.2° 1012.0 hPa 4.3 m/s 0.8 mm 13.8° 1012.6 hPa 5.6 m/s
13:00 15.1° 1013.4 hPa 6.3 m/s 4.6 mm 16.1° 1013.0 hPa 8.1 m/s 18.0 mm 15.2° 1013.9 hPa 6.6 m/s 0.4 mm 13.6° 1010.1 hPa 3.8 m/s 0.0 mm 15.0° 1013.7 hPa 5.9 m/s 2.0 mm 15.1° 1014.1 hPa 7.8 m/s
16:00 15.3° 1014.7 hPa 6.4 m/s 1.6 mm 15.0° 1014.7 hPa 8.0 m/s 18.0 mm 15.8° 1014.7 hPa 7.0 m/s 0.1 mm 14.2° 1011.4 hPa 4.7 m/s 0.0 mm 15.4° 1015.2 hPa 5.9 m/s 1.4 mm 15.5° 1015.6 hPa 7.3 m/s
19:00 14.3° 1016.2 hPa 5.8 m/s 1.3 mm 14.2° 1016.0 hPa 6.7 m/s 18.1 mm 14.7° 1016.3 hPa 6.0 m/s 0.0 mm 13.2° 1012.4 hPa 3.3 m/s 0.0 mm 14.5° 1016.8 hPa 5.8 m/s 0.4 mm 13.8° 1016.8 hPa 5.2 m/s
22:00 12.4° 1018.5 hPa 3.0 m/s 0.0 mm 12.8° 1017.4 hPa 3.5 m/s 18.6 mm 12.5° 1017.8 hPa 1.9 m/s 0.0 mm 12.4° 1018.8 hPa 2.9 m/s 0.0 mm 10.6° 1018.8 hPa 3.2 m/s
 06:28     20:52    Daglengte: 14:24 Dinsdag 20 Aug
01:00 11.9° 1019.5 hPa 2.2 m/s 0.0 mm 12.6° 1018.0 hPa 3.7 m/s 18.7 mm 12.3° 1018.8 hPa 1.6 m/s 0.0 mm 12.0° 1019.8 hPa 2.2 m/s 0.0 mm 11.2° 1019.3 hPa 2.6 m/s
04:00 12.6° 1019.2 hPa 2.7 m/s 3.2 mm 12.8° 1017.5 hPa 2.3 m/s 43.9 mm 12.2° 1017.9 hPa 1.9 m/s 0.3 mm 12.9° 1019.8 hPa 3.3 m/s 0.4 mm 12.0° 1019.4 hPa 2.4 m/s
07:00 12.9° 1019.6 hPa 3.4 m/s 9.1 mm 13.8° 1018.5 hPa 3.3 m/s 72.3 mm 12.4° 1018.4 hPa 2.9 m/s 0.6 mm 12.8° 1019.9 hPa 3.7 m/s 1.1 mm 11.8° 1019.5 hPa 3.1 m/s
10:00 15.0° 1020.2 hPa 4.5 m/s 23.0 mm 16.1° 1020.0 hPa 4.7 m/s 75.6 mm 15.2° 1019.1 hPa 3.0 m/s 0.7 mm 14.6° 1020.7 hPa 4.7 m/s 1.5 mm 15.7° 1020.8 hPa 4.6 m/s
13:00 16.3° 1021.3 hPa 5.2 m/s 20.9 mm 15.5° 1020.8 hPa 6.1 m/s 78.2 mm 16.5° 1020.0 hPa 4.1 m/s 3.2 mm 16.3° 1022.0 hPa 5.3 m/s 0.4 mm 17.0° 1021.5 hPa 5.3 m/s
16:00 17.0° 1021.8 hPa 5.7 m/s 18.5 mm 17.7° 1021.3 hPa 6.3 m/s 87.4 mm 17.3° 1020.8 hPa 4.5 m/s 1.7 mm 16.6° 1022.5 hPa 5.8 m/s 0.9 mm 17.6° 1021.9 hPa 5.6 m/s
19:00 16.1° 1022.4 hPa 4.5 m/s 15.9 mm 16.4° 1022.3 hPa 5.0 m/s 88.1 mm 16.4° 1021.1 hPa 4.0 m/s 0.3 mm 15.7° 1022.8 hPa 4.5 m/s 0.4 mm 15.4° 1022.7 hPa 4.1 m/s
22:00 14.5° 1022.9 hPa 3.4 m/s 0.0 mm 14.2° 1023.2 hPa 2.8 m/s 88.4 mm 14.7° 1021.7 hPa 2.8 m/s 0.1 mm 14.4° 1023.1 hPa 4.0 m/s 12.6° 1023.7 hPa 2.4 m/s
 06:29     20:49    Daglengte: 14:20 Woensdag 21 Aug
01:00 13.3° 1022.8 hPa 3.4 m/s 0.0 mm 13.0° 1022.8 hPa 3.7 m/s 88.5 mm 14.0° 1021.0 hPa 3.4 m/s 0.0 mm 13.2° 1023.4 hPa 3.4 m/s 11.0° 1023.2 hPa 2.4 m/s
04:00 12.8° 1022.1 hPa 4.1 m/s 15.9 mm 13.1° 1022.1 hPa 4.3 m/s 10.4° 1022.6 hPa 2.7 m/s 15.9 mm
07:00 12.8° 1021.4 hPa 4.5 m/s 15.9 mm 13.0° 1021.4 hPa 4.7 m/s 10.5° 1021.4 hPa 2.9 m/s 15.9 mm
10:00 14.7° 1020.2 hPa 5.9 m/s 16.0 mm 14.6° 1020.2 hPa 6.0 m/s 15.4° 1020.7 hPa 5.2 m/s 16.0 mm
13:00 16.1° 1019.1 hPa 7.1 m/s 16.8 mm 16.2° 1019.0 hPa 7.2 m/s 15.4° 1020.0 hPa 6.0 m/s 16.8 mm
16:00 16.0° 1018.9 hPa 5.7 m/s 17.8 mm 16.2° 1018.8 hPa 5.8 m/s 13.6° 1019.9 hPa 5.0 m/s 17.8 mm
19:00 16.2° 1018.8 hPa 4.3 m/s 18.9 mm 16.3° 1018.6 hPa 4.4 m/s 14.6° 1020.4 hPa 3.2 m/s 18.9 mm
22:00 15.3° 1019.2 hPa 4.0 m/s 19.0 mm 15.7° 1019.0 hPa 4.1 m/s 11.4° 1021.8 hPa 2.6 m/s 19.0 mm
 06:31     20:47    Daglengte: 14:16 Donderdag 22 Aug
01:00 14.7° 1019.7 hPa 3.7 m/s 19.0 mm 15.1° 1019.4 hPa 3.8 m/s 10.1° 1022.4 hPa 2.6 m/s 19.0 mm
04:00 15.3° 1019.0 hPa 4.8 m/s 19.0 mm 15.8° 1018.8 hPa 5.0 m/s 9.9° 1021.5 hPa 2.4 m/s 19.0 mm
07:00 15.9° 1018.3 hPa 5.9 m/s 19.0 mm 16.4° 1018.1 hPa 6.2 m/s 10.6° 1021.0 hPa 2.7 m/s 19.0 mm
10:00 17.3° 1019.7 hPa 6.6 m/s 19.1 mm 17.4° 1019.6 hPa 6.8 m/s 16.0° 1021.2 hPa 4.3 m/s 19.1 mm
13:00 18.4° 1021.1 hPa 7.2 m/s 19.4 mm 18.4° 1021.1 hPa 7.4 m/s 18.1° 1021.0 hPa 5.6 m/s 19.4 mm
16:00 17.8° 1021.6 hPa 6.1 m/s 19.9 mm 17.7° 1021.7 hPa 6.2 m/s 19.3° 1020.5 hPa 5.6 m/s 19.9 mm
19:00 17.1° 1022.1 hPa 4.8 m/s 20.1 mm 17.0° 1022.3 hPa 4.9 m/s 17.8° 1020.4 hPa 4.2 m/s 20.1 mm
22:00 15.7° 1022.6 hPa 4.1 m/s 20.2 mm 15.9° 1022.8 hPa 4.2 m/s 13.7° 1020.6 hPa 3.6 m/s 20.2 mm
 06:33     20:45    Daglengte: 14:12 Vrijdag 23 Aug
01:00 14.6° 1022.9 hPa 3.5 m/s 20.2 mm 14.8° 1023.2 hPa 3.5 m/s 12.1° 1019.7 hPa 4.0 m/s 20.2 mm
04:00 13.7° 1022.5 hPa 3.4 m/s 20.2 mm 13.9° 1022.9 hPa 3.3 m/s 11.4° 1018.0 hPa 4.0 m/s 20.2 mm
07:00 13.0° 1022.1 hPa 3.2 m/s 20.2 mm 13.1° 1022.6 hPa 3.1 m/s 12.1° 1017.0 hPa 4.2 m/s 20.2 mm
10:00 17.0° 1021.4 hPa 4.1 m/s 20.2 mm 17.0° 1021.9 hPa 4.0 m/s 17.0° 1016.7 hPa 5.9 m/s 20.2 mm
13:00 20.9° 1020.6 hPa 5.0 m/s 20.2 mm 20.9° 1021.1 hPa 4.8 m/s 20.5° 1015.5 hPa 6.7 m/s 20.2 mm
16:00 20.4° 1019.5 hPa 4.5 m/s 20.2 mm 20.4° 1020.0 hPa 4.4 m/s 21.5° 1014.6 hPa 5.6 m/s 20.2 mm
19:00 19.6° 1018.4 hPa 3.9 m/s 20.3 mm 19.8° 1018.8 hPa 4.0 m/s 17.7° 1014.4 hPa 2.5 m/s 20.3 mm
22:00 16.9° 1018.4 hPa 3.4 m/s 20.5 mm 17.1° 1018.7 hPa 3.6 m/s 14.4° 1015.4 hPa 0.5 m/s 20.5 mm
 06:35     20:43    Daglengte: 14:08 Zaterdag 24 Aug
01:00 14.5° 1018.4 hPa 3.1 m/s 21.0 mm 14.5° 1018.6 hPa 3.3 m/s 14.4° 1016.1 hPa 0.7 m/s 21.0 mm
04:00 14.4° 1017.7 hPa 3.1 m/s 21.0 mm 14.5° 1017.9 hPa 3.2 m/s 13.7° 1016.0 hPa 1.5 m/s 21.0 mm
07:00 14.3° 1017.1 hPa 3.0 m/s 21.0 mm 14.5° 1017.2 hPa 3.2 m/s 11.6° 1016.5 hPa 1.1 m/s 21.0 mm
10:00 16.1° 1017.8 hPa 2.9 m/s 21.0 mm 16.2° 1017.8 hPa 3.0 m/s 15.2° 1017.5 hPa 2.0 m/s 21.0 mm
13:00 17.9° 1018.3 hPa 2.7 m/s 21.0 mm 17.9° 1018.4 hPa 2.7 m/s 18.2° 1017.4 hPa 2.2 m/s 21.0 mm
16:00 17.4° 1018.8 hPa 2.4 m/s 21.0 mm 17.3° 1019.0 hPa 2.4 m/s 18.4° 1016.9 hPa 2.1 m/s 21.0 mm
19:00 16.7° 1019.3 hPa 2.0 m/s 21.1 mm 16.7° 1019.5 hPa 2.1 m/s 16.2° 1016.7 hPa 1.2 m/s 21.1 mm
22:00 14.5° 1021.0 hPa 2.9 m/s 21.1 mm 14.5° 1021.4 hPa 3.0 m/s 14.5° 1017.1 hPa 1.7 m/s 21.1 mm
 06:36     20:41    Daglengte: 14:05 Zondag 25 Aug
01:00 12.4° 1022.7 hPa 3.9 m/s 21.1 mm 12.3° 1023.2 hPa 4.0 m/s 13.8° 1016.7 hPa 2.9 m/s 21.1 mm
07:00 10.3° 1024.1 hPa 2.6 m/s 21.2 mm 10.0° 1024.8 hPa 2.6 m/s 13.0° 1016.6 hPa 3.0 m/s 21.2 mm
13:00 15.6° 1025.3 hPa 4.0 m/s 21.2 mm 15.4° 1026.0 hPa 3.9 m/s 18.2° 1017.6 hPa 4.5 m/s 21.2 mm
19:00 15.8° 1026.2 hPa 4.3 m/s 21.3 mm 15.6° 1026.9 hPa 4.3 m/s 18.5° 1018.4 hPa 3.8 m/s 21.3 mm
 06:38     20:38    Daglengte: 14:00 Maandag 26 Aug
01:00 10.8° 1028.3 hPa 2.3 m/s 21.3 mm 10.5° 1029.1 hPa 2.1 m/s 13.9° 1019.1 hPa 4.3 m/s 21.3 mm
07:00 8.7° 1028.6 hPa 1.5 m/s 21.3 mm 8.3° 1029.5 hPa 1.3 m/s 12.9° 1018.2 hPa 3.7 m/s 21.3 mm
13:00 16.9° 1028.6 hPa 2.2 m/s 21.3 mm 16.4° 1029.5 hPa 2.0 m/s 22.1° 1018.2 hPa 4.3 m/s 21.3 mm
19:00 16.6° 1027.1 hPa 2.4 m/s 21.3 mm 16.1° 1028.0 hPa 2.2 m/s 22.2° 1017.5 hPa 4.6 m/s 21.3 mm
 06:40     20:36    Daglengte: 13:56 Dinsdag 27 Aug
01:00 12.4° 1027.4 hPa 1.6 m/s 21.3 mm 12.0° 1028.2 hPa 1.4 m/s 17.2° 1018.6 hPa 3.7 m/s 21.3 mm
07:00 10.8° 1026.1 hPa 0.8 m/s 21.3 mm 10.3° 1026.8 hPa 0.6 m/s 16.1° 1018.8 hPa 3.2 m/s 21.3 mm
13:00 17.9° 1025.1 hPa 1.4 m/s 21.3 mm 17.4° 1025.6 hPa 1.0 m/s 22.9° 1019.3 hPa 5.7 m/s 21.3 mm
19:00 17.7° 1022.9 hPa 1.6 m/s 0.5 mm
 06:41     20:34    Daglengte: 13:53 Woensdag 28 Aug
01:00 13.0° 1022.8 hPa 0.9 m/s 0.2 mm
07:00 12.0° 1021.4 hPa 0.7 m/s 0.2 mm
13:00 17.7° 1021.5 hPa 0.7 m/s 0.2 mm
19:00 17.5° 1020.6 hPa 0.9 m/s 0.3 mm
 06:43     20:31    Daglengte: 13:48 Donderdag 29 Aug
01:00 13.1° 1021.1 hPa 0.2 m/s 0.4 mm
07:00 12.0° 1020.4 hPa 1.0 m/s 0.1 mm
13:00 17.2° 1020.5 hPa 0.8 m/s 0.3 mm
19:00 17.0° 1019.7 hPa 1.5 m/s 0.7 mm
 06:45     20:29    Daglengte: 13:44 Vrijdag 30 Aug
01:00 12.8° 1020.1 hPa 0.7 m/s 0.6 mm
07:00 11.2° 1019.6 hPa 0.8 m/s 0.7 mm
13:00 16.5° 1020.0 hPa 0.7 m/s 0.4 mm
19:00 16.3° 1019.0 hPa 1.7 m/s 0.4 mm
 06:46     20:27    Daglengte: 13:41 Zaterdag 31 Aug
01:00 12.2° 1018.9 hPa 0.6 m/s 0.2 mm
07:00 11.2° 1017.7 hPa 0.9 m/s 0.5 mm
13:00 16.5° 1018.0 hPa 1.3 m/s 0.2 mm
19:00 16.3° 1017.2 hPa 2.4 m/s 0.5 mm
 06:48     20:24    Daglengte: 13:36 Zondag 01 Sep
01:00 11.6° 1018.0 hPa 1.4 m/s 0.5 mm
07:00 10.3° 1017.5 hPa 0.9 m/s 0.4 mm
13:00 15.7° 1018.0 hPa 1.9 m/s 0.2 mm
19:00 15.4° 1017.7 hPa 2.5 m/s 0.2 mm
FMI Hirlam - 7.5 km EWN WRFDA - 12 km DWD ICON - 7 km GFS - 25 km Basiskaart






























































Updatetijd (Europe/Amsterdam) Resolutie Lengte Stap
FMI Hirlam 19:00, 01:00, 07:00, 13:00 7.5 km 49h 1h
EWN WRFDA 21:30, 03:30, 09:30, 15:30 12 km 73h 1h
DWD ICON 23:45, 05:45, 11:45, 17:45 7 km 75h 1h
GFS 20:30, 02:30, 08:30, 14:30 25 km 237h 3h
30+ mm
25-30 mm
20-25 mm
15-20 mm
10-15 mm
6-10 mm
4-6 mm
2-4 mm
1-2 mm
0.5-1 mm
0.2-0.5 mm
0.1-0.2 mm
30+ mm
25-30 mm
20-25 mm
15-20 mm
10-15 mm
6-10 mm
4-6 mm
2-4 mm
1-2 mm
0.5-1 mm
0.2-0.5 mm
0.1-0.2 mm
Sneeuwval
Natte sneeuw
Hagel
Vorst
30+ mm
25-30 mm
20-25 mm
15-20 mm
10-15 mm
6-10 mm
4-6 mm
2-4 mm
1-2 mm
0.5-1 mm
0.2-0.5 mm
0.1-0.2 mm
Sneeuwval
Natte sneeuw
Hagel
Vorst
Onweer
50 mm
40 mm
30 mm
26 mm
22 mm
18 mm
14 mm
10 mm
9 mm
8 mm
7 mm
6 mm
5 mm
4.5 mm
4 mm
3.5 mm
3 mm
2.5 mm
2 mm
1.5 mm
1 mm
0.8 mm
0.6 mm
0.4 mm
0.2 mm
0.05 mm
35°
30°
25°
20°
15°
10°
-5°
-10°
-15°
-20°
-25°
-30°
-35°
33> m/s
29 m/s
25 m/s
21 m/s
17 m/s
14 m/s
11 m/s
8 m/s
5 m/s
3 m/s
0 m/s
2600 J/kg
2400 J/kg
2200 J/kg
2000 J/kg
1800 J/kg
1600 J/kg
1400 J/kg
1200 J/kg
1000 J/kg
800 J/kg
600 J/kg
400 J/kg
200 J/kg
70 dBZ
65 dBZ
60 dBZ
55 dBZ
50 dBZ
45 dBZ
40 dBZ
35 dBZ
30 dBZ
25 dBZ
20 dBZ
15 dBZ
10 dBZ
5 dBZ
-1 K
-2 K
-3 K
-4 K
-5 K
-6 K
-7 K
-8 K
-9 K
950 m²/s²
900 m²/s²
850 m²/s²
800 m²/s²
750 m²/s²
700 m²/s²
650 m²/s²
600 m²/s²
550 m²/s²
500 m²/s²
450 m²/s²
400 m²/s²
350 m²/s²
300 m²/s²
250 m²/s²
200 m²/s²
150 m²/s²
100 m²/s²
46 m/s
44 m/s
42 m/s
40 m/s
38 m/s
36 m/s
34 m/s
32 m/s
30 m/s
28 m/s
26 m/s
24 m/s
22 m/s
20 m/s
16 m/s
12 m/s
8 m/s
4 m/s
30 m/s
28 m/s
26 m/s
24 m/s
22 m/s
20 m/s
18 m/s
16 m/s
14 m/s
12 m/s
10 m/s
8 m/s
6 m/s
4 m/s
2 m/s
3.0
2.8
2.6
2.4
2.2
2.0
1.8
1.6
1.4
1.2
1.0
0.8
0.6
0.4
0.2
15
14
13